This demonstration page uses our WeatherBlox Daily Observations layout. Learn more.

Left ArrowRight Arrow

44.8408, -93.29828

Hourly Observations for March 9, 2017

Temp ( °F °C ) Dew Point ( °F °C ) Humidity (%) Winds ( mph kmh ) Pressure ( in mb ) Visibility ( mi km ) Precip ( " mm )
12:53 am 00:53 Cloudy 28 -2.2 13 -10.6 53 53 NW 6 9 30.22 1024 10 16 0.00 0.00
1:53 am 01:53 Cloudy 27 -2.8 14 -10 58 58 NNW 6 9 30.22 1024 10 16 0.00 0.00
2:53 am 02:53 Cloudy 27 -2.8 12 -11.1 53 53 N 8 13 30.22 1023 10 16 0.00 0.00
3:53 am 03:53 Cloudy 26 -3.3 12 -11.1 55 55 N 7 11 30.24 1024 10 16 0.00 0.00
4:53 am 04:53 Cloudy 25 -3.9 11 -11.7 55 55 N 8 13 30.25 1024 10 16 0.00 0.00
5:53 am 05:53 Cloudy 25 -3.9 11 -11.7 55 55 N 8 13 30.24 1024 10 16 0.00 0.00
6:53 am 06:53 Cloudy 24 -4.4 12 -11.1 60 60 N 9 15 30.27 1025 10 16 0.00 0.00
7:53 am 07:53 Cloudy 24 -4.4 11 -11.7 57 57 NNE 9 15 30.28 1025 10 16 0.00 0.00
8:53 am 08:53 Cloudy 25 -3.9 10 -12.2 53 53 NNW 8 13 30.29 1026 10 16 0.00 0.00
9:53 am 09:53 Cloudy 26 -3.3 10 -12.2 51 51 N 8 13 30.32 1027 10 16 0.00 0.00
10:53 am 10:53 Mostly Cloudy 28 -2.2 8 -13.3 43 43 NW 8 13 30.31 1026 10 16 0.00 0.00
11:53 am 11:53 Mostly Cloudy 30 -1.1 3 -16.1 31 31 NNW 13 20 30.32 1027 10 16 0.00 0.00
12:53 pm 12:53 Cloudy 29 -1.7 -2 -18.9 26 26 N 14 22 30.32 1027 10 16 0.00 0.00
1:53 pm 13:53 Cloudy 29 -1.7 1 -17.2 30 30 N 9 15 30.31 1027 10 16 0.00 0.00
2:53 pm 14:53 Cloudy 29 -1.7 0 -17.8 28 28 N 12 19 30.33 1027 10 16 0.00 0.00
3:53 pm 15:53 Cloudy 29 -1.7 1 -17.2 30 30 NNW 10 17 30.34 1027 10 16 0.00 0.00
4:53 pm 16:53 Cloudy 28 -2.2 1 -17.2 31 31 NW 13 20 30.36 1028 10 16 0.00 0.00
5:53 pm 17:53 Cloudy 26 -3.3 0 -17.8 32 32 NNW 16 26 30.37 1029 10 16 0.00 0.00
6:53 pm 18:53 Mostly Cloudy 25 -3.9 -1 -18.3 32 32 NNW 16 26 30.40 1030 10 16 0.00 0.00
7:53 pm 19:53 Mostly Clear 23 -5 -1 -18.3 35 35 NNW 17 28 30.43 1031 10 16 0.00 0.00
8:53 pm 20:53 Clear 22 -5.6 0 -17.8 38 38 NNW 16 26 30.45 1031 10 16 0.00 0.00
9:53 pm 21:53 Clear 22 -5.6 1 -17.2 40 40 NNW 15 24 30.47 1032 10 16 0.00 0.00
10:53 pm 22:53 Clear 20 -6.7 1 -17.2 43 43 NNW 17 28 30.49 1033 10 16 0.00 0.00
11:53 pm 23:53 Clear 18 -7.8 0 -17.8 45 45 NNW 16 26 30.51 1033 10 16 0.00 0.00

Powered by AerisWeather